Track STARLINK-1410 now! 10-day predictions STARLINK-1410 is classified as:
1 45705U 20035BA 22138.41029566 .00001581 00000-0 12504-3 0 9990 2 45705 53.0541 192.3104 0001921 52.3370 307.7793 15.06401867109020